[Date Prev][Date Next][Thread Prev][Thread Next] - [Date Index][Thread Index][Author Index]

2 Line ISS Keps 8-13



ISS
1 25544U 98067A   05224.98966435  .00012261  00000-0  97609-4 0  1318
2 25544 051.6460 330.0862 0001036 245.9087 086.0880 15.71656703384614
----
Via the sarex mailing list at AMSAT.ORG courtesy of AMSAT-NA.
To unsubscribe, send "unsubscribe sarex" to Majordomo@amsat.org



AMSAT Top AMSAT Home